EN

Hourly Weather Alibag

Today, 16 January, Saturday

Time Temperature Precipitation Wind Pressure Humidity
00:00 +24°C° 0 mm 2 mps 757 mmHg 61%
01:00 +24°C° 0 mm 2 mps 757 mmHg 61%
02:00 +24°C° 0 mm 2 mps 756 mmHg 62%
03:00 +24°C° 0 mm 2 mps 756 mmHg 63%
04:00 +22°C° 0 mm 3 mps 756 mmHg 63%
05:00 +22°C° 0 mm 3 mps 756 mmHg 63%
06:00 +24°C° 0 mm 3 mps 757 mmHg 62%
07:00 +24°C° 0 mm 3 mps 757 mmHg 61%
08:00 +25°C° 0 mm 3 mps 757 mmHg 59%
09:00 +27°C° 0 mm 2 mps 757 mmHg 51%
10:00 +30°C° 0 mm 2 mps 757 mmHg 44%
11:00 +32°C° 0 mm 1 mps 758 mmHg 37%
12:00 +34°C° 0 mm 2 mps 757 mmHg 37%
13:00 +34°C° 0 mm 3 mps 756 mmHg 38%
14:00 +34°C° 0 mm 3 mps 755 mmHg 38%
15:00 +32°C° 0 mm 4 mps 755 mmHg 42%
16:00 +30°C° 0 mm 4 mps 755 mmHg 47%
17:00 +29°C° 0 mm 4 mps 755 mmHg 51%
18:00 +28°C° 0 mm 3 mps 756 mmHg 55%
19:00 +27°C° 0 mm 3 mps 756 mmHg 60%
20:00 +26°C° 0 mm 2 mps 757 mmHg 64%
21:00 +26°C° 0 mm 2 mps 757 mmHg 64%
22:00 +25°C° 0 mm 2 mps 757 mmHg 64%
23:00 +25°C° 0 mm 2 mps 757 mmHg 64%

Tomorrow, 17 January, Sunday

Time Temperature Precipitation Wind Pressure Humidity
00:00 +25°C° 0 mm 2 mps 756 mmHg 64%
01:00 +25°C° 0 mm 2 mps 756 mmHg 64%
02:00 +25°C° 0 mm 3 mps 756 mmHg 64%
03:00 +25°C° 0 mm 2 mps 756 mmHg 65%
04:00 +25°C° 0 mm 2 mps 756 mmHg 65%
05:00 +24°C° 0 mm 2 mps 756 mmHg 65%
06:00 +25°C° 0 mm 2 mps 756 mmHg 63%
07:00 +25°C° 0 mm 1 mps 757 mmHg 61%
08:00 +26°C° 0 mm 1 mps 757 mmHg 59%
09:00 +28°C° 0 mm 1 mps 757 mmHg 53%
10:00 +30°C° 0 mm 2 mps 757 mmHg 47%
11:00 +32°C° 0 mm 2 mps 757 mmHg 42%
12:00 +33°C° 0 mm 3 mps 757 mmHg 42%
13:00 +33°C° 0 mm 3 mps 756 mmHg 43%
14:00 +33°C° 0 mm 3 mps 756 mmHg 44%
15:00 +31°C° 0 mm 3 mps 756 mmHg 48%
16:00 +30°C° 0 mm 3 mps 756 mmHg 52%
17:00 +29°C° 0 mm 3 mps 756 mmHg 56%
18:00 +28°C° 0 mm 2 mps 757 mmHg 59%
19:00 +27°C° 0 mm 2 mps 757 mmHg 62%
20:00 +26°C° 0 mm 2 mps 758 mmHg 65%
21:00 +26°C° 0 mm 1 mps 758 mmHg 65%
22:00 +26°C° 0 mm 1 mps 758 mmHg 65%
23:00 +26°C° 0 mm 1 mps 758 mmHg 65%

Day after tomorrow, 18 January, Monday

Time Temperature Precipitation Wind Pressure Humidity
00:00 +26°C° 0 mm 1 mps 758 mmHg 65%
01:00 +25°C° 0 mm 1 mps 757 mmHg 66%
02:00 +25°C° 0 mm 1 mps 757 mmHg 66%
03:00 +25°C° 0 mm 1 mps 757 mmHg 67%
04:00 +25°C° 0 mm 2 mps 757 mmHg 68%
05:00 +25°C° 0 mm 2 mps 757 mmHg 68%
06:00 +25°C° 0 mm 2 mps 757 mmHg 67%
07:00 +26°C° 0 mm 2 mps 758 mmHg 66%
08:00 +26°C° 0 mm 2 mps 759 mmHg 65%
09:00 +28°C° 0 mm 2 mps 759 mmHg 59%
10:00 +30°C° 0 mm 3 mps 759 mmHg 53%
11:00 +31°C° 0 mm 3 mps 759 mmHg 47%
12:00 +33°C° 0 mm 3 mps 759 mmHg 47%
13:00 +33°C° 0 mm 4 mps 758 mmHg 47%
14:00 +33°C° 0 mm 4 mps 757 mmHg 48%
15:00 +32°C° 0 mm 4 mps 757 mmHg 51%
16:00 +30°C° 0 mm 4 mps 757 mmHg 55%
17:00 +29°C° 0 mm 4 mps 757 mmHg 58%
18:00 +28°C° 0 mm 4 mps 757 mmHg 61%
19:00 +27°C° 0 mm 3 mps 758 mmHg 63%
20:00 +26°C° 0 mm 3 mps 758 mmHg 66%
21:00 +26°C° 0 mm 2 mps 758 mmHg 65%
22:00 +26°C° 0 mm 2 mps 758 mmHg 65%
23:00 +25°C° 0 mm 2 mps 758 mmHg 64%

19 January, Tuesday

Time Temperature Precipitation Wind Pressure Humidity
00:00 +25°C° 0 mm 2 mps 758 mmHg 63%
01:00 +25°C° 0 mm 3 mps 757 mmHg 63%
02:00 +25°C° 0 mm 3 mps 757 mmHg 62%
03:00 +25°C° 0 mm 3 mps 757 mmHg 62%
04:00 +25°C° 0 mm 3 mps 757 mmHg 62%
05:00 +25°C° 0 mm 3 mps 757 mmHg 61%
06:00 +25°C° 0 mm 3 mps 758 mmHg 59%
07:00 +26°C° 0 mm 3 mps 758 mmHg 57%
08:00 +26°C° 0 mm 2 mps 759 mmHg 55%
09:00 +28°C° 0 mm 3 mps 759 mmHg 49%
10:00 +30°C° 0 mm 3 mps 759 mmHg 44%
11:00 +34°C° 0 mm 3 mps 759 mmHg 38%
12:00 +34°C° 0 mm 4 mps 758 mmHg 37%
13:00 +34°C° 0 mm 4 mps 758 mmHg 37%
14:00 +34°C° 0 mm 4 mps 757 mmHg 36%
15:00 +33°C° 0 mm 4 mps 757 mmHg 39%
16:00 +32°C° 0 mm 4 mps 757 mmHg 42%
17:00 +30°C° 0 mm 4 mps 756 mmHg 45%
18:00 +29°C° 0 mm 3 mps 757 mmHg 50%
19:00 +28°C° 0 mm 3 mps 758 mmHg 54%
20:00 +27°C° 0 mm 3 mps 758 mmHg 58%
21:00 +27°C° 0 mm 3 mps 758 mmHg 58%
22:00 +27°C° 0 mm 3 mps 758 mmHg 57%
23:00 +26°C° 0 mm 2 mps 758 mmHg 57%

20 January, Wednesday

Time Temperature Precipitation Wind Pressure Humidity
00:00 +26°C° 0 mm 2 mps 758 mmHg 56%
01:00 +26°C° 0 mm 2 mps 758 mmHg 55%
02:00 +26°C° 0 mm 2 mps 757 mmHg 54%
03:00 +25°C° 0 mm 2 mps 757 mmHg 54%
04:00 +25°C° 0 mm 3 mps 757 mmHg 54%
05:00 +25°C° 0 mm 3 mps 757 mmHg 53%
06:00 +26°C° 0 mm 3 mps 758 mmHg 51%
07:00 +26°C° 0 mm 3 mps 758 mmHg 49%
08:00 +27°C° 0 mm 3 mps 759 mmHg 47%
09:00 +29°C° 0 mm 3 mps 759 mmHg 41%
10:00 +32°C° 0 mm 2 mps 759 mmHg 35%
11:00 +35°C° 0 mm 2 mps 759 mmHg 28%
12:00 +35°C° 0 mm 3 mps 759 mmHg 28%
13:00 +35°C° 0 mm 4 mps 758 mmHg 28%
14:00 +36°C° 0 mm 4 mps 758 mmHg 28%
15:00 +34°C° 0 mm 4 mps 758 mmHg 33%
16:00 +33°C° 0 mm 4 mps 757 mmHg 37%
17:00 +32°C° 0 mm 4 mps 757 mmHg 42%
18:00 +29°C° 0 mm 4 mps 758 mmHg 46%
19:00 +28°C° 0 mm 4 mps 758 mmHg 51%
20:00 +27°C° 0 mm 3 mps 759 mmHg 56%
21:00 +27°C° 0 mm 3 mps 759 mmHg 55%
22:00 +26°C° 0 mm 3 mps 759 mmHg 55%
23:00 +26°C° 0 mm 2 mps 759 mmHg 54%

21 January, Thursday

Time Temperature Precipitation Wind Pressure Humidity
00:00 +26°C° 0 mm 3 mps 759 mmHg 54%
01:00 +26°C° 0 mm 3 mps 759 mmHg 54%
02:00 +25°C° 0 mm 3 mps 758 mmHg 54%
03:00 +25°C° 0 mm 3 mps 758 mmHg 54%
04:00 +23°C° 0 mm 4 mps 758 mmHg 54%
05:00 +23°C° 0 mm 4 mps 758 mmHg 53%
06:00 +25°C° 0 mm 4 mps 759 mmHg 50%
07:00 +25°C° 0 mm 3 mps 759 mmHg 47%
08:00 +26°C° 0 mm 3 mps 759 mmHg 45%
09:00 +28°C° 0 mm 3 mps 760 mmHg 37%
10:00 +30°C° 0 mm 3 mps 760 mmHg 29%
11:00 +34°C° 0 mm 3 mps 760 mmHg 22%
12:00 +34°C° 0 mm 4 mps 759 mmHg 22%
13:00 +34°C° 0 mm 4 mps 758 mmHg 22%
14:00 +35°C° 0 mm 4 mps 758 mmHg 22%
15:00 +34°C° 0 mm 4 mps 758 mmHg 27%
16:00 +32°C° 0 mm 4 mps 758 mmHg 32%
17:00 +30°C° 0 mm 4 mps 758 mmHg 38%
18:00 +28°C° 0 mm 4 mps 758 mmHg 43%
19:00 +27°C° 0 mm 4 mps 759 mmHg 49%
20:00 +25°C° 0 mm 3 mps 759 mmHg 55%
21:00 +25°C° 0 mm 3 mps 759 mmHg 55%
22:00 +25°C° 0 mm 3 mps 759 mmHg 56%
23:00 +24°C° 0 mm 2 mps 759 mmHg 56%
Show more